Location: ????? ??????
(37.8317°N, 23.8750°E)
Time: 17:54:29
(UTC+00:00)

EXPRESS MD2 - Pass Details

Date: 20 January 2021
Orbit: 260 x 3983 km, 49.9° (Epoch: 01 March)

Event Time Altitude Azimuth Distance (km) Brightness Sun altitude
Rises 17:41:41 0° 306° (NW) 4,325 8.6 -24.8°
Reaches altitude 10° 17:45:31 10° 306° (NW) 2,748 7.4 -25.6°
Enters shadow 17:50:35 58° 302° (WNW) 716 4.0 -26.6°
